Language: 


Des rapports , des résumés tant et plus, au choix de chacun....


Données statistiques de la station
Quotidien Rapport Décembre 25, 2017 Unités:  Métrique    Anglais   les deux
« Précédent Jour
Suivant Jour »
Quotidien Hebdomadaire Mensuel Annuel Actuel
  Haut: Bas: Moyen:
Température: -17.8 °C -14.7 °C -13.4 °C
Pt de rosée: -17.8 °C -15 °C -13.8 °C
Humidité: Humidity % 85 % 93 %
Vitesse du vent: 0 km/h 9.8 km/h 26.4 km/h
Rafales: 0 km/h - -
Vent:- - SSW
Pression: 0 hPa 33924.3 hPa -
Précipitation: 0 mm    
Historical Graphs
 
 
Données statistiques pour Décembre 25, 2017
Heure Température Point de rosée Pression Vent Vitesse du vent Refales Humidité Pluie (taux horaire)
-17.8 °C -17.8 °C 0 hPa Calm     Humidity % 0 mm
00:04 -12.6 °C -12.8 °C 34533.8 hPa WSW 28.5 km/h 34.8 km/h 98 % 0 mm
00:08 -12.6 °C -12.8 °C 34533.8 hPa SSW 22.5 km/h 34.8 km/h 98 % 0 mm
00:13 -12.6 °C -12.8 °C 34533.8 hPa SSW 31.9 km/h 31.9 km/h 98 % 0 mm
00:15 -12.6 °C -12.8 °C 34533.8 hPa WSW 16.3 km/h 31.9 km/h 98 % 0 mm
00:20 -12.6 °C -12.8 °C 34533.8 hPa SW 19.2 km/h 31.9 km/h 98 % 0 mm
00:25 -12.6 °C -12.8 °C 34567.7 hPa SW 19.6 km/h 33.2 km/h 98 % 0 mm
00:26 -12.6 °C -12.8 °C 34567.7 hPa WSW 31.9 km/h 33.2 km/h 98 % 0 mm
00:30 -12.6 °C -12.8 °C 34567.7 hPa WSW 20.9 km/h 34.1 km/h 98 % 0 mm
00:33 -12.6 °C -12.8 °C 34567.7 hPa WSW 15 km/h 34.1 km/h 98 % 0 mm
00:38 -12.6 °C -12.8 °C 34567.7 hPa SSW 20.9 km/h 31.9 km/h 98 % 0 mm
00:42 -12.6 °C -12.8 °C 34567.7 hPa SW 22 km/h 22.5 km/h 98 % 0 mm
00:47 -12.6 °C -12.8 °C 34567.7 hPa WSW 16.9 km/h 22.5 km/h 98 % 0 mm
00:49 -12.6 °C -12.8 °C 34567.7 hPa SSW 15.6 km/h 22.5 km/h 98 % 0 mm
00:54 -12.6 °C -12.8 °C 34567.7 hPa SSW 16.3 km/h 22.5 km/h 98 % 0 mm
00:55 -12.6 °C -12.8 °C 34567.7 hPa SSW 22 km/h 22.5 km/h 98 % 0 mm
01:00 -12.6 °C -12.8 °C 34567.7 hPa SW 22.5 km/h 22.5 km/h 98 % 0 mm
01:01 -12.6 °C -12.8 °C 34567.7 hPa WSW 15.6 km/h 22.5 km/h 98 % 0 mm
01:03 -12.6 °C -12.8 °C 34567.7 hPa SW 20.3 km/h 25.4 km/h 98 % 0 mm
01:07 -12.6 °C -12.8 °C 34567.7 hPa SSW 22 km/h 29.5 km/h 98 % 0 mm
01:08 -12.6 °C -12.8 °C 34567.7 hPa SSW 19.2 km/h 29.5 km/h 98 % 0 mm
01:13 -12.6 °C -12.8 °C 34567.7 hPa SW 20.9 km/h 34.1 km/h 98 % 0 mm
01:14 -12.6 °C -12.8 °C 34567.7 hPa WSW 16.3 km/h 34.1 km/h 98 % 0 mm
01:17 -12.6 °C -12.8 °C 34567.7 hPa WSW 25.4 km/h 34.1 km/h 98 % 0 mm
01:22 -12.6 °C -12.8 °C 34567.7 hPa WSW 20.9 km/h 29.5 km/h 98 % 0 mm
01:23 -12.6 °C -12.8 °C 34567.7 hPa SW 26.2 km/h 29.5 km/h 98 % 0 mm
01:26 -12.6 °C -12.8 °C 34567.7 hPa WSW 25.4 km/h 33.2 km/h 98 % 0 mm
01:30 -12.6 °C -12.8 °C 34567.7 hPa WSW 23 km/h 33.2 km/h 98 % 0 mm
01:35 -12.6 °C -12.8 °C 34567.7 hPa WSW 15.6 km/h 32.3 km/h 98 % 0 mm
01:40 -12.6 °C -12.8 °C 34567.7 hPa WSW 20.3 km/h 33.6 km/h 98 % 0 mm
01:45 -12.6 °C -12.8 °C 34533.8 hPa SW 34.1 km/h 34.1 km/h 98 % 0 mm
01:50 -12.6 °C -12.8 °C 34533.8 hPa SSW 31.4 km/h 34.1 km/h 97 % 0 mm
01:55 -12.6 °C -12.8 °C 34533.8 hPa SW 25.4 km/h 34.1 km/h 97 % 0 mm
01:57 -12.6 °C -12.8 °C 34533.8 hPa SW 24.3 km/h 31.4 km/h 97 % 0 mm
02:02 -12.6 °C -12.8 °C 34533.8 hPa WSW 22 km/h 27.2 km/h 97 % 0 mm
02:06 -12.6 °C -12.8 °C 34533.8 hPa SSW 25.4 km/h 25.4 km/h 97 % 0 mm
02:11 -12.6 °C -12.8 °C 34533.8 hPa SSW 16.3 km/h 25.4 km/h 97 % 0 mm
02:13 -12.6 °C -12.8 °C 34533.8 hPa SSW 19.2 km/h 25.4 km/h 97 % 0 mm
02:14 -12.6 °C -12.8 °C 34533.8 hPa SSW 16.3 km/h 25.4 km/h 97 % 0 mm
02:19 -12.6 °C -12.8 °C 34533.8 hPa WSW 22.5 km/h 26.2 km/h 96 % 0 mm
02:20 -12.6 °C -12.8 °C 34533.8 hPa SW 15 km/h 26.7 km/h 96 % 0 mm
02:25 -12.6 °C -12.8 °C 34533.8 hPa WSW 16.3 km/h 33.6 km/h 96 % 0 mm
02:27 -12.6 °C -12.8 °C 34496.6 hPa WSW 16.9 km/h 33.6 km/h 96 % 0 mm
02:29 -12.6 °C -12.8 °C 34496.6 hPa WSW 27.2 km/h 33.6 km/h 96 % 0 mm
02:34 -12.6 °C -12.8 °C 34496.6 hPa SW 16.9 km/h 27.2 km/h 96 % 0 mm
02:35 -12.6 °C -12.8 °C 34496.6 hPa SW 19.6 km/h 31.4 km/h 96 % 0 mm
02:40 -12.6 °C -12.8 °C 34496.6 hPa SW 19.2 km/h 31.4 km/h 96 % 0 mm
02:44 -12.6 °C -12.8 °C 34496.6 hPa SSW 19.6 km/h 31.4 km/h 96 % 0 mm
02:49 -12.6 °C -12.8 °C 34496.6 hPa SSW 18.7 km/h 27.7 km/h 96 % 0 mm
02:51 -12.6 °C -12.8 °C 34496.6 hPa SW 28.5 km/h 28.5 km/h 96 % 0 mm
02:53 -12.6 °C -12.8 °C 34496.6 hPa SW 28.5 km/h 28.5 km/h 96 % 0 mm
02:58 -12.6 °C -12.8 °C 34496.6 hPa WSW 22 km/h 33.2 km/h 96 % 0 mm
02:59 -12.6 °C -12.8 °C 34496.6 hPa WSW 39.9 km/h 39.9 km/h 96 % 0 mm
03:04 -12.6 °C -12.8 °C 34496.6 hPa SSW 20.3 km/h 39.9 km/h 95 % 0 mm
03:07 -12.6 °C -12.8 °C 34496.6 hPa SSW 20.3 km/h 39.9 km/h 95 % 0 mm
03:09 -12.6 °C -12.8 °C 34496.6 hPa SW 19.2 km/h 39.9 km/h 95 % 0 mm
03:14 -12.6 °C -12.8 °C 34476.3 hPa SW 20.3 km/h 31.4 km/h 95 % 0 mm
03:19 -12.6 °C -12.8 °C 34476.3 hPa SSW 16.3 km/h 31.4 km/h 95 % 0 mm
03:21 -12.6 °C -12.8 °C 34476.3 hPa WSW 22 km/h 29.5 km/h 95 % 0 mm
03:26 -12.6 °C -12.8 °C 34496.6 hPa SSW 22 km/h 28.5 km/h 95 % 0 mm
03:27 -12.6 °C -12.8 °C 34496.6 hPa WSW 28.5 km/h 28.5 km/h 95 % 0 mm
03:28 -12.6 °C -12.8 °C 34496.6 hPa WSW 16.9 km/h 28.5 km/h 95 % 0 mm
03:33 -12.6 °C -12.8 °C 34496.6 hPa WSW 20.3 km/h 28.5 km/h 95 % 0 mm
03:35 -12.6 °C -12.8 °C 34496.6 hPa SSW 14.5 km/h 28.5 km/h 95 % 0 mm
03:39 -12.6 °C -12.8 °C 34496.6 hPa SW 20.9 km/h 25.4 km/h 94 % 0 mm
03:41 -12.6 °C -12.8 °C 34496.6 hPa WSW 14.5 km/h 25.4 km/h 94 % 0 mm
03:46 -12.6 °C -12.8 °C 34496.6 hPa WSW 23 km/h 27.2 km/h 94 % 0 mm
03:51 -12.6 °C -12.8 °C 34496.6 hPa SW 27.2 km/h 31.9 km/h 94 % 0 mm
03:54 -12.6 °C -12.8 °C 34496.6 hPa SSW 27.7 km/h 31.9 km/h 94 % 0 mm
03:59 -12.6 °C -12.8 °C 34496.6 hPa SW 22.5 km/h 31.9 km/h 93 % 0 mm
04:02 -12.6 °C -12.8 °C 34496.6 hPa SW 23.8 km/h 31.9 km/h 93 % 0 mm
04:03 -12.6 °C -12.8 °C 34496.6 hPa SSW 20.9 km/h 31.9 km/h 93 % 0 mm
04:08 -12.6 °C -13.3 °C 34496.6 hPa SSW 26.7 km/h 31.9 km/h 92 % 0 mm
04:11 -12.6 °C -13.3 °C 34496.6 hPa SW 20.3 km/h 31.9 km/h 92 % 0 mm
04:16 -12.6 °C -13.3 °C 34496.6 hPa SW 27.2 km/h 31.9 km/h 92 % 0 mm
04:17 -12.6 °C -13.3 °C 34496.6 hPa SW 20.9 km/h 31.9 km/h 92 % 0 mm
04:18 -12.6 °C -13.3 °C 34496.6 hPa SW 20.9 km/h 31.9 km/h 92 % 0 mm
04:22 -12.6 °C -13.3 °C 34496.6 hPa WSW 14.5 km/h 33.2 km/h 92 % 0 mm
04:24 -12.6 °C -13.3 °C 34496.6 hPa WSW 19.2 km/h 33.2 km/h 92 % 0 mm
04:28 -12.6 °C -13.3 °C 34496.6 hPa SW 22 km/h 33.2 km/h 91 % 0 mm
04:30 -12.6 °C -13.3 °C 34496.6 hPa SSW 20.9 km/h 33.2 km/h 91 % 0 mm
04:35 -12.6 °C -13.3 °C 34496.6 hPa SW 22 km/h 33.6 km/h 91 % 0 mm
04:38 -12.6 °C -13.3 °C 34496.6 hPa SSW 16.9 km/h 33.6 km/h 91 % 0 mm
04:43 -12.6 °C -13.3 °C 34496.6 hPa SSW 25.4 km/h 34.8 km/h 90 % 0 mm
04:44 -12.6 °C -13.3 °C 34496.6 hPa WSW 20.3 km/h 34.8 km/h 90 % 0 mm
04:48 -12.6 °C -13.3 °C 34496.6 hPa SSW 22.5 km/h 40.7 km/h 89 % 0 mm
04:50 -12.6 °C -13.3 °C 34496.6 hPa SW 25.4 km/h 40.7 km/h 89 % 0 mm
04:55 -12.6 °C -13.3 °C 34496.6 hPa SW 22.5 km/h 40.7 km/h 88 % 0 mm
05:00 -12.6 °C -13.3 °C 34496.6 hPa WSW 22.5 km/h 38.3 km/h 88 % 0 mm
05:03 -12.6 °C -13.3 °C 34496.6 hPa SW 26.2 km/h 40.7 km/h 87 % 0 mm
05:07 -12.6 °C -13.3 °C 34496.6 hPa WSW 22 km/h 40.7 km/h 87 % 0 mm
05:10 -12.6 °C -13.3 °C 34476.3 hPa SW 22 km/h 40.7 km/h 87 % 0 mm
05:15 -12.6 °C -13.3 °C 34476.3 hPa SW 33.2 km/h 33.2 km/h 87 % 0 mm
05:20 -12.6 °C -13.3 °C 34476.3 hPa SW 27.7 km/h 33.2 km/h 87 % 0 mm
05:25 -12.6 °C -13.3 °C 34476.3 hPa WSW 27.7 km/h 34.1 km/h 87 % 0 mm
05:27 -12.6 °C -13.3 °C 34476.3 hPa SSW 22 km/h 34.1 km/h 87 % 0 mm
05:31 -12.6 °C -13.3 °C 34476.3 hPa SSW 22 km/h 33.6 km/h 87 % 0 mm
05:36 -12.6 °C -13.3 °C 34476.3 hPa WSW 28.5 km/h 33.6 km/h 87 % 0 mm
05:39 -12.6 °C -13.3 °C 34476.3 hPa WSW 22.5 km/h 33.6 km/h 87 % 0 mm
05:44 -12.6 °C -13.3 °C 34476.3 hPa SW 19.6 km/h 31.9 km/h 87 % 0 mm
05:49 -12.6 °C -13.3 °C 34476.3 hPa SW 22.5 km/h 34.1 km/h 87 % 0 mm
05:54 -12.6 °C -13.3 °C 34476.3 hPa SSW 20.9 km/h 34.1 km/h 87 % 0 mm
05:59 -12.6 °C -13.9 °C 34476.3 hPa SW 17.9 km/h 29 km/h 86 % 0 mm
06:00 -12.6 °C -13.9 °C 34476.3 hPa SW 22 km/h 34.1 km/h 86 % 0 mm
06:05 -12.6 °C -13.3 °C 34476.3 hPa SSW 22 km/h 34.1 km/h 87 % 0 mm
06:07 -12.6 °C -13.3 °C 34476.3 hPa SSW 16.9 km/h 34.1 km/h 87 % 0 mm
06:12 -12.6 °C -13.3 °C 34476.3 hPa SSW 25.4 km/h 29 km/h 87 % 0 mm
06:14 -12.6 °C -13.3 °C 34476.3 hPa SSW 22.5 km/h 27.7 km/h 87 % 0 mm
06:19 -12.6 °C -13.3 °C 34476.3 hPa SSW 26.7 km/h 33.6 km/h 87 % 0 mm
06:23 -12.6 °C -13.3 °C 34476.3 hPa SW 20.3 km/h 39.9 km/h 87 % 0 mm
06:26 -12.7 °C -13.3 °C 34476.3 hPa WSW 20.9 km/h 39.9 km/h 87 % 0 mm
06:28 -12.7 °C -13.3 °C 34476.3 hPa WSW 20.3 km/h 39.9 km/h 87 % 0 mm
06:31 -12.7 °C -13.3 °C 34476.3 hPa WSW 17.4 km/h 39.9 km/h 87 % 0 mm
06:36 -12.7 °C -13.3 °C 34476.3 hPa SW 28.5 km/h 28.5 km/h 87 % 0 mm
06:38 -12.7 °C -13.3 °C 34476.3 hPa SSW 20.3 km/h 31.4 km/h 87 % 0 mm
06:43 -12.7 °C -13.3 °C 34428.8 hPa SW 26.7 km/h 39.4 km/h 87 % 0 mm
06:45 -12.7 °C -13.3 °C 34428.8 hPa SW 19.2 km/h 39.9 km/h 87 % 0 mm
06:50 -12.7 °C -13.3 °C 34428.8 hPa SSW 26.7 km/h 39.9 km/h 88 % 0 mm
06:53 -12.7 °C -13.9 °C 34428.8 hPa SW 25.4 km/h 39.9 km/h 88 % 0 mm
06:55 -12.7 °C -13.9 °C 34428.8 hPa SSW 25.4 km/h 32.3 km/h 88 % 0 mm
07:00 -12.7 °C -13.3 °C 34428.8 hPa SW 14.5 km/h 29 km/h 89 % 0 mm
07:05 -12.8 °C -13.3 °C 34428.8 hPa SSW 19.2 km/h 24.8 km/h 90 % 0 mm
07:06 -12.8 °C -13.3 °C 34428.8 hPa SSW 19.2 km/h 24.8 km/h 90 % 0 mm
07:11 -12.8 °C -13.3 °C 34428.8 hPa SSW 18.7 km/h 25.4 km/h 91 % 0 mm
07:12 -12.8 °C -13.3 °C 34428.8 hPa SSW 20.9 km/h 25.4 km/h 91 % 0 mm
07:17 -12.9 °C -13.3 °C 34428.8 hPa SSW 19.2 km/h 25.4 km/h 92 % 0 mm
07:19 -12.9 °C -13.3 °C 34428.8 hPa SW 15 km/h 25.4 km/h 92 % 0 mm
07:23 -12.9 °C -13.3 °C 34428.8 hPa SW 14.5 km/h 20.9 km/h 93 % 0 mm
07:28 -13 °C -13.3 °C 34428.8 hPa SSW 14 km/h 25.4 km/h 94 % 0 mm
07:32 -13 °C -13.3 °C 34428.8 hPa SSW 26.2 km/h 34.1 km/h 94 % 0 mm
07:37 -13.1 °C -13.3 °C 34428.8 hPa SW 16.3 km/h 34.1 km/h 95 % 0 mm
07:38 -13.1 °C -13.3 °C 34428.8 hPa SW 23.8 km/h 34.1 km/h 95 % 0 mm
07:43 -13.1 °C -13.3 °C 34428.8 hPa WSW 25.4 km/h 30.7 km/h 95 % 0 mm
07:44 -13.1 °C -13.3 °C 34428.8 hPa SW 26.2 km/h 31.9 km/h 95 % 0 mm
07:49 -13.1 °C -13.3 °C 34428.8 hPa WSW 24.8 km/h 34.1 km/h 95 % 0 mm
07:53 -13.1 °C -13.3 °C 34428.8 hPa SW 19.2 km/h 34.1 km/h 95 % 0 mm
07:58 -13.1 °C -13.3 °C 34405.1 hPa SW 22 km/h 32.3 km/h 95 % 0 mm
07:59 -13.1 °C -13.3 °C 34405.1 hPa SW 22.5 km/h 32.3 km/h 95 % 0 mm
08:04 -13.1 °C -13.3 °C 34405.1 hPa WSW 22 km/h 27.2 km/h 95 % 0 mm
08:05 -13.1 °C -13.3 °C 34405.1 hPa SSW 16.3 km/h 31.9 km/h 95 % 0 mm
08:10 -13.1 °C -13.3 °C 34405.1 hPa SSW 20.9 km/h 31.9 km/h 95 % 0 mm
08:13 -13.1 °C -13.3 °C 34405.1 hPa SW 22 km/h 31.9 km/h 95 % 0 mm
08:19 -13.1 °C -13.3 °C 34405.1 hPa WSW 19.2 km/h 28.5 km/h 95 % 0 mm
08:24 -13.1 °C -13.3 °C 34405.1 hPa SSW 16.3 km/h 27.2 km/h 95 % 0 mm
08:27 -13.1 °C -13.3 °C 34428.8 hPa SSW 19.2 km/h 27.2 km/h 95 % 0 mm
08:32 -13.1 °C -13.3 °C 34428.8 hPa South 9.8 km/h 27.2 km/h 95 % 0 mm
08:37 -13.1 °C -13.3 °C 34428.8 hPa SSW 28.5 km/h 28.5 km/h 95 % 0 mm
08:40 -13.2 °C -13.3 °C 34428.8 hPa WSW 20.9 km/h 28.5 km/h 95 % 0 mm
08:42 -13.2 °C -13.3 °C 34428.8 hPa SSW 20.3 km/h 31.9 km/h 95 % 0 mm
08:47 -13.2 °C -13.3 °C 34428.8 hPa SSW 16.3 km/h 32.3 km/h 96 % 0 mm
08:49 -13.2 °C -13.3 °C 34428.8 hPa SSW 15.6 km/h 32.3 km/h 96 % 0 mm
08:54 -13.2 °C -13.3 °C 34428.8 hPa SW 20.3 km/h 32.3 km/h 96 % 0 mm
08:55 -13.2 °C -13.3 °C 34428.8 hPa SSW 20.9 km/h 32.3 km/h 96 % 0 mm
09:00 -13.2 °C -13.3 °C 34405.1 hPa SSW 20.3 km/h 27.7 km/h 96 % 0 mm
09:03 -13.2 °C -13.3 °C 34405.1 hPa SW 22.5 km/h 27.7 km/h 96 % 0 mm
09:08 -13.2 °C -13.3 °C 34405.1 hPa SW 23 km/h 27.2 km/h 96 % 0 mm
09:12 -13.2 °C -13.3 °C 34428.8 hPa SSW 18.7 km/h 27.7 km/h 96 % 0 mm
09:17 -13.3 °C -13.3 °C 34428.8 hPa South 24.8 km/h 27.7 km/h 96 % 0 mm
09:22 -13.3 °C -13.3 °C 34428.8 hPa SW 14 km/h 34.1 km/h 96 % 0 mm
09:23 -13.3 °C -13.3 °C 34428.8 hPa SSW 22 km/h 34.1 km/h 96 % 0 mm
09:28 -13.3 °C -13.3 °C 34428.8 hPa SSW 17.9 km/h 31.4 km/h 96 % 0 mm
09:29 -13.3 °C -13.3 °C 34428.8 hPa SW 18.7 km/h 27.7 km/h 96 % 0 mm
09:34 -13.3 °C -13.3 °C 34428.8 hPa SSW 25.4 km/h 31.9 km/h 96 % 0 mm
09:36 -13.3 °C -13.3 °C 34428.8 hPa SW 25.4 km/h 31.9 km/h 97 % 0 mm
09:41 -13.3 °C -13.3 °C 34428.8 hPa South 20.3 km/h 32.3 km/h 97 % 0 mm
09:42 -13.3 °C -13.3 °C 34428.8 hPa SSW 16.3 km/h 32.3 km/h 97 % 0 mm
09:47 -13.3 °C -13.3 °C 34428.8 hPa SSW 10.3 km/h 32.3 km/h 97 % 0 mm
09:48 -13.3 °C -13.3 °C 34428.8 hPa SSW 15.6 km/h 32.3 km/h 97 % 0 mm
09:53 -13.3 °C -13.3 °C 34428.8 hPa WSW 28.5 km/h 29 km/h 97 % 0 mm
09:58 -13.3 °C -13.3 °C 34428.8 hPa SSW 26.7 km/h 33.6 km/h 97 % 0 mm
09:59 -13.3 °C -13.3 °C 34428.8 hPa WSW 27.7 km/h 33.6 km/h 97 % 0 mm
10:04 -13.3 °C -13.3 °C 34428.8 hPa SW 29.5 km/h 33.6 km/h 97 % 0 mm
10:07 -13.3 °C -13.3 °C 34428.8 hPa SSW 26.7 km/h 33.6 km/h 97 % 0 mm
10:12 -13.3 °C -13.3 °C 34428.8 hPa SSW 16.3 km/h 31.9 km/h 96 % 0 mm
10:17 -13.3 °C -13.3 °C 34428.8 hPa SSW 18.7 km/h 33.2 km/h 96 % 0 mm
10:22 -13.2 °C -13.3 °C 34428.8 hPa WSW 14.5 km/h 33.2 km/h 96 % 0 mm
10:24 -13.2 °C -13.3 °C 34428.8 hPa South 27.2 km/h 33.2 km/h 95 % 0 mm
10:29 -13.2 °C -13.9 °C 34428.8 hPa South 20.3 km/h 34.1 km/h 94 % 0 mm
10:30 -13.2 °C -13.9 °C 34428.8 hPa SSW 16.3 km/h 34.1 km/h 94 % 0 mm
10:32 -13.2 °C -13.9 °C 34428.8 hPa SSW 19.6 km/h 34.1 km/h 94 % 0 mm
10:37 -13.2 °C -13.9 °C 34428.8 hPa SSW 26.7 km/h 33.2 km/h 94 % 0 mm
10:39 -13.2 °C -13.9 °C 34428.8 hPa SSW 15.6 km/h 33.2 km/h 94 % 0 mm
10:44 -13.3 °C -13.9 °C 34405.1 hPa SSW 26.7 km/h 33.2 km/h 93 % 0 mm
10:45 -13.3 °C -13.9 °C 34405.1 hPa South 32.3 km/h 33.2 km/h 93 % 0 mm
10:49 -13.3 °C -13.9 °C 34405.1 hPa SSW 19.6 km/h 35.2 km/h 93 % 0 mm
10:51 -13.3 °C -13.9 °C 34405.1 hPa South 34.1 km/h 35.2 km/h 93 % 0 mm
10:56 -13.3 °C -13.9 °C 34405.1 hPa SSW 16.3 km/h 43.5 km/h 93 % 0 mm
11:01 -13.3 °C -13.9 °C 34405.1 hPa WSW 22.5 km/h 43.5 km/h 93 % 0 mm
11:06 -13.3 °C -13.9 °C 34405.1 hPa SSW 25.4 km/h 44.6 km/h 93 % 0 mm
11:07 -13.3 °C -13.9 °C 34405.1 hPa South 24.8 km/h 44.6 km/h 93 % 0 mm
11:08 -13.3 °C -13.9 °C 34405.1 hPa SSW 22 km/h 44.6 km/h 93 % 0 mm
11:13 -13.3 °C -13.9 °C 34405.1 hPa SW 26.2 km/h 44.6 km/h 93 % 0 mm
11:14 -13.3 °C -13.9 °C 34405.1 hPa South 20.9 km/h 44.6 km/h 93 % 0 mm
11:17 -13.3 °C -13.9 °C 34405.1 hPa SSW 25.4 km/h 39.9 km/h 92 % 0 mm
11:19 -13.3 °C -13.9 °C 34405.1 hPa SSW 27.7 km/h 39.9 km/h 92 % 0 mm
11:24 -13.3 °C -13.9 °C 34405.1 hPa SSW 16.9 km/h 34.1 km/h 92 % 0 mm
11:25 -13.3 °C -13.9 °C 34405.1 hPa SSW 27.2 km/h 34.1 km/h 92 % 0 mm
11:30 -13.3 °C -13.9 °C 34371.3 hPa SSW 15.6 km/h 39.9 km/h 91 % 0 mm
11:31 -13.3 °C -13.9 °C 34371.3 hPa South 27.2 km/h 39.9 km/h 90 % 0 mm
11:36 -13.3 °C -13.9 °C 34371.3 hPa SSW 26.7 km/h 39.9 km/h 89 % 0 mm
11:40 -13.2 °C -14.4 °C 34371.3 hPa SSW 22 km/h 36 km/h 88 % 0 mm
11:43 -13.2 °C -14.4 °C 34371.3 hPa SW 24.8 km/h 34.1 km/h 88 % 0 mm
11:47 -13.2 °C -13.9 °C 34371.3 hPa SW 19.6 km/h 31.9 km/h 87 % 0 mm
11:48 -13.2 °C -13.9 °C 34371.3 hPa SSW 25.4 km/h 34.1 km/h 87 % 0 mm
11:53 -13.2 °C -14.4 °C 34371.3 hPa South 22 km/h 34.1 km/h 86 % 0 mm
11:55 -13.2 °C -14.4 °C 34371.3 hPa South 34.8 km/h 34.8 km/h 86 % 0 mm
12:00 -13.1 °C -14.4 °C 34405.1 hPa SSW 22 km/h 38.3 km/h 85 % 0 mm
12:01 -13.1 °C -14.4 °C 34405.1 hPa SSW 14 km/h 38.3 km/h 85 % 0 mm
12:02 -13.1 °C -14.4 °C 34405.1 hPa SW 33.2 km/h 38.3 km/h 85 % 0 mm
12:07 -13.1 °C -14.4 °C 34405.1 hPa SSW 26.7 km/h 33.2 km/h 85 % 0 mm
12:11 -13.1 °C -14.4 °C 34337.4 hPa South 27.7 km/h 33.2 km/h 85 % 0 mm
12:16 -13.1 °C -14.4 °C 34337.4 hPa SW 29 km/h 33.2 km/h 85 % 0 mm
12:21 -13.1 °C -14.4 °C 34337.4 hPa SSW 16.9 km/h 34.8 km/h 85 % 0 mm
12:23 -13.1 °C -14.4 °C 34337.4 hPa SSW 20.3 km/h 34.8 km/h 85 % 0 mm
12:28 -13.1 °C -14.4 °C 34371.3 hPa SSW 15.6 km/h 49.7 km/h 85 % 0 mm
12:30 -13.1 °C -14.4 °C 34371.3 hPa SSW 25.4 km/h 49.7 km/h 86 % 0 mm
12:33 -13.1 °C -14.4 °C 34371.3 hPa SW 15.6 km/h 49.7 km/h 86 % 0 mm
12:36 -13.1 °C -14.4 °C 34371.3 hPa South 27.2 km/h 27.7 km/h 86 % 0 mm
12:38 -13.1 °C -14.4 °C 34371.3 hPa SSW 27.7 km/h 27.7 km/h 86 % 0 mm
12:43 -13.1 °C -14.4 °C 34337.4 hPa South 22 km/h 28.5 km/h 86 % 0 mm
12:44 -13.1 °C -14.4 °C 34337.4 hPa South 22.5 km/h 28.5 km/h 86 % 0 mm
12:49 -13.2 °C -13.9 °C 34337.4 hPa South 20.9 km/h 50.5 km/h 87 % 0 mm
12:50 -13.2 °C -13.9 °C 34337.4 hPa South 31.4 km/h 50.5 km/h 87 % 0 mm
12:55 -13.1 °C -13.9 °C 34337.4 hPa South 19.6 km/h 50.5 km/h 87 % 0 mm
12:58 -13.1 °C -13.9 °C 34303.6 hPa SSW 22.5 km/h 39.4 km/h 87 % 0 mm
13:03 -13.1 °C -13.9 °C 34303.6 hPa South 28.5 km/h 39.4 km/h 88 % 0 mm
13:05 -13.1 °C -13.9 °C 34303.6 hPa SSW 19.2 km/h 38.3 km/h 88 % 0 mm
13:06 -13.1 °C -13.9 °C 34303.6 hPa SSE 36 km/h 38.3 km/h 88 % 0 mm
13:11 -13.1 °C -13.9 °C 34303.6 hPa South 25.4 km/h 38.3 km/h 88 % 0 mm
13:12 -13.1 °C -13.9 °C 34303.6 hPa South 32.3 km/h 38.3 km/h 88 % 0 mm
13:13 -13.1 °C -13.9 °C 34303.6 hPa South 35.2 km/h 40.7 km/h 88 % 0 mm
13:18 -13.1 °C -13.9 °C 34303.6 hPa SSW 19.6 km/h 40.7 km/h 88 % 0 mm
13:19 -13.1 °C -13.9 °C 34303.6 hPa SSW 22.5 km/h 40.7 km/h 88 % 0 mm
13:24 -13.2 °C -13.9 °C 34303.6 hPa SSW 22 km/h 37.5 km/h 89 % 0 mm
13:25 -13.2 °C -13.9 °C 34303.6 hPa SSE 19.6 km/h 37.5 km/h 89 % 0 mm
13:27 -13.2 °C -13.9 °C 34269.7 hPa WSW 20.3 km/h 37.5 km/h 89 % 0 mm
13:32 -13.2 °C -13.9 °C 34269.7 hPa South 20.9 km/h 50.5 km/h 89 % 0 mm
13:34 -13.2 °C -13.9 °C 34269.7 hPa SSW 25.4 km/h 50.5 km/h 89 % 0 mm
13:39 -13.2 °C -13.9 °C 34269.7 hPa South 19.6 km/h 50.5 km/h 89 % 0 mm
13:41 -13.2 °C -13.9 °C 34303.6 hPa South 26.2 km/h 37 km/h 89 % 0 mm
13:42 -13.2 °C -13.9 °C 34303.6 hPa SW 24.3 km/h 37 km/h 89 % 0 mm
13:47 -13.2 °C -13.9 °C 34303.6 hPa SSW 22 km/h 37 km/h 90 % 0 mm
13:49 -13.2 °C -13.9 °C 34303.6 hPa South 26.2 km/h 34.1 km/h 90 % 0 mm
13:54 -13.2 °C -13.9 °C 34303.6 hPa SSW 16.9 km/h 39.9 km/h 89 % 0 mm
13:59 -13.3 °C -13.9 °C 34303.6 hPa South 29 km/h 43 km/h 89 % 0 mm
14:05 -13.2 °C -13.9 °C 34303.6 hPa SSW 33.6 km/h 43 km/h 89 % 0 mm
14:10 -13.2 °C -14.4 °C 34303.6 hPa SSW 23.8 km/h 44.1 km/h 88 % 0 mm
14:11 -13.2 °C -14.4 °C 34303.6 hPa SSW 25.4 km/h 44.1 km/h 88 % 0 mm
14:16 -13.3 °C -14.4 °C 34303.6 hPa South 23.8 km/h 44.6 km/h 88 % 0 mm
14:21 -13.3 °C -13.9 °C 34303.6 hPa South 16.9 km/h 44.6 km/h 89 % 0 mm
14:22 -13.2 °C -13.9 °C 34303.6 hPa SW 26.2 km/h 44.6 km/h 89 % 0 mm
14:27 -13.3 °C -13.9 °C 34269.7 hPa SSW 34.1 km/h 44.6 km/h 89 % 0 mm
14:30 -13.3 °C -13.9 °C 34269.7 hPa SSE 26.7 km/h 44.6 km/h 89 % 0 mm
14:35 -13.3 °C -14.4 °C 34269.7 hPa SSW 24.8 km/h 44.6 km/h 88 % 0 mm
14:38 -13.3 °C -13.9 °C 34269.7 hPa SSW 43 km/h 43 km/h 89 % 0 mm
14:43 -13.3 °C -13.9 °C 34269.7 hPa SSW 45.1 km/h 45.1 km/h 89 % 0 mm
14:44 -13.3 °C -13.9 °C 34269.7 hPa SW 33.6 km/h 45.1 km/h 89 % 0 mm
14:50 -13.3 °C -13.9 °C 34269.7 hPa South 36 km/h 45.1 km/h 89 % 0 mm
14:51 -13.3 °C -13.9 °C 34269.7 hPa SSW 39.9 km/h 45.1 km/h 89 % 0 mm
14:56 -13.3 °C -13.9 °C 34269.7 hPa SSW 27.2 km/h 44.6 km/h 89 % 0 mm
14:59 -13.3 °C -13.9 °C 34269.7 hPa SSW 33.6 km/h 44.6 km/h 89 % 0 mm
15:04 -13.3 °C -13.9 °C 34269.7 hPa South 15 km/h 45.1 km/h 90 % 0 mm
15:05 -13.3 °C -13.9 °C 34269.7 hPa SSW 19.6 km/h 45.1 km/h 90 % 0 mm
15:10 -13.3 °C -13.9 °C 34269.7 hPa South 19.6 km/h 45.1 km/h 90 % 0 mm
15:12 -13.4 °C -13.9 °C 34235.8 hPa SSW 33.2 km/h 45.1 km/h 91 % 0 mm
15:17 -13.3 °C -13.9 °C 34235.8 hPa SSW 24.8 km/h 41.7 km/h 91 % 0 mm
15:18 -13.3 °C -13.9 °C 34235.8 hPa SSW 14 km/h 41.7 km/h 91 % 0 mm
15:23 -13.3 °C -13.9 °C 34235.8 hPa SSE 27.2 km/h 41.7 km/h 91 % 0 mm
15:28 -13.3 °C -13.9 °C 34198.6 hPa South 28.5 km/h 38.3 km/h 90 % 0 mm
15:30 -13.3 °C -13.9 °C 34198.6 hPa South 22.5 km/h 38.3 km/h 90 % 0 mm
15:31 -13.3 °C -13.9 °C 34198.6 hPa SSW 19.6 km/h 38.3 km/h 90 % 0 mm
15:36 -13.4 °C -13.9 °C 34198.6 hPa South 33.6 km/h 38.3 km/h 91 % 0 mm
15:39 -13.4 °C -13.9 °C 34198.6 hPa SSW 23.8 km/h 34.8 km/h 91 % 0 mm
15:44 -13.4 °C -13.9 °C 34269.7 hPa South 38.3 km/h 38.3 km/h 91 % 0 mm
15:47 -13.4 °C -13.9 °C 34269.7 hPa South 32.3 km/h 39.9 km/h 92 % 0 mm
15:49 -13.4 °C -13.9 °C 34269.7 hPa South 26.7 km/h 45.1 km/h 92 % 0 mm
15:55 -13.5 °C -14.4 °C 34269.7 hPa SSW 19.6 km/h 45.1 km/h 92 % 0 mm
15:57 -13.5 °C -14.4 °C 34235.8 hPa South 33.2 km/h 45.1 km/h 92 % 0 mm
16:00 -13.6 °C -14.4 °C 34235.8 hPa South 23 km/h 36 km/h 92 % 0 mm
16:01 -13.6 °C -14.4 °C 34235.8 hPa SSE 22.5 km/h 36 km/h 92 % 0 mm
16:03 -13.6 °C -14.4 °C 34235.8 hPa South 20.9 km/h 37 km/h 92 % 0 mm
16:08 -13.6 °C -13.9 °C 34235.8 hPa South 20.9 km/h 37 km/h 93 % 0 mm
16:13 -13.6 °C -13.9 °C 34235.8 hPa SSW 19.2 km/h 36.5 km/h 93 % 0 mm
16:18 -13.6 °C -13.9 °C 34235.8 hPa WSW 19.2 km/h 39.4 km/h 93 % 0 mm
16:19 -13.6 °C -13.9 °C 34235.8 hPa SSW 20.9 km/h 39.4 km/h 93 % 0 mm
16:25 -13.7 °C -14.4 °C 34235.8 hPa WSW 23.8 km/h 36.5 km/h 93 % 0 mm
16:27 -13.7 °C -14.4 °C 34198.6 hPa South 26.7 km/h 32.3 km/h 93 % 0 mm
16:30 -13.7 °C -14.4 °C 34198.6 hPa SSW 26.7 km/h 38.3 km/h 93 % 0 mm
16:33 -13.7 °C -14.4 °C 34198.6 hPa SSE 34.1 km/h 38.3 km/h 93 % 0 mm
16:38 -13.7 °C -14.4 °C 34198.6 hPa SSW 39.9 km/h 41.2 km/h 93 % 0 mm
16:44 -13.7 °C -14.4 °C 34198.6 hPa SSW 28.5 km/h 41.2 km/h 93 % 0 mm
16:47 -13.7 °C -14.4 °C 34198.6 hPa South 28.5 km/h 41.2 km/h 93 % 0 mm
16:50 -13.7 °C -14.4 °C 34198.6 hPa South 22.5 km/h 39.4 km/h 93 % 0 mm
16:55 -13.7 °C -14.4 °C 34198.6 hPa SSW 22.5 km/h 39.9 km/h 93 % 0 mm
16:57 -13.7 °C -14.4 °C 34198.6 hPa SSW 26.2 km/h 39.9 km/h 93 % 0 mm
17:02 -13.7 °C -14.4 °C 34198.6 hPa SSW 26.2 km/h 49.7 km/h 93 % 0 mm
17:04 -13.7 °C -14.4 °C 34198.6 hPa SSW 44.1 km/h 49.7 km/h 93 % 0 mm
17:08 -13.7 °C -14.4 °C 34198.6 hPa SSE 34.1 km/h 49.7 km/h 93 % 0 mm
17:13 -13.7 °C -14.4 °C 34198.6 hPa SSW 27.7 km/h 46.3 km/h 93 % 0 mm
17:18 -13.7 °C -14.4 °C 34198.6 hPa SSW 33.6 km/h 43.5 km/h 93 % 0 mm
17:20 -13.7 °C -14.4 °C 34198.6 hPa SSW 16.9 km/h 43.5 km/h 93 % 0 mm
17:23 -13.7 °C -14.4 °C 34198.6 hPa South 19.6 km/h 43.5 km/h 93 % 0 mm
17:28 -13.8 °C -14.4 °C 34164.7 hPa South 27.7 km/h 41.2 km/h 93 % 0 mm
17:29 -13.8 °C -14.4 °C 34164.7 hPa SW 27.7 km/h 41.2 km/h 93 % 0 mm
17:34 -13.8 °C -14.4 °C 34164.7 hPa SSE 33.2 km/h 44.1 km/h 93 % 0 mm
17:35 -13.8 °C -14.4 °C 34164.7 hPa SSW 28.5 km/h 44.1 km/h 93 % 0 mm
17:40 -13.8 °C -14.4 °C 34164.7 hPa South 20.9 km/h 46.3 km/h 93 % 0 mm
17:45 -13.8 °C -14.4 °C 34164.7 hPa South 33.2 km/h 55.7 km/h 93 % 0 mm
17:49 -13.8 °C -14.4 °C 34164.7 hPa South 39.9 km/h 55.7 km/h 93 % 0 mm
17:54 -13.8 °C -14.4 °C 34164.7 hPa South 38.3 km/h 55.7 km/h 93 % 0 mm
17:59 -13.8 °C -14.4 °C 34164.7 hPa SSW 39.4 km/h 57.9 km/h 93 % 0 mm
18:03 -13.8 °C -14.4 °C 34164.7 hPa SSW 20.9 km/h 57.9 km/h 93 % 0 mm
18:04 -13.8 °C -14.4 °C 34164.7 hPa SSE 35.2 km/h 57.9 km/h 93 % 0 mm
18:09 -13.9 °C -14.4 °C 34164.7 hPa South 33.6 km/h 55.7 km/h 93 % 0 mm
18:14 -13.9 °C -14.4 °C 34130.9 hPa SSW 44.1 km/h 57.9 km/h 93 % 0 mm
18:16 -13.9 °C -14.4 °C 34130.9 hPa SSW 28.5 km/h 57.9 km/h 93 % 0 mm
18:21 -13.9 °C -14.4 °C 34130.9 hPa SSW 34.1 km/h 45.9 km/h 93 % 0 mm
18:22 -13.9 °C -14.4 °C 34130.9 hPa SW 38.3 km/h 45.9 km/h 93 % 0 mm
18:27 -13.9 °C -14.4 °C 34130.9 hPa South 39.9 km/h 45.9 km/h 93 % 0 mm
18:32 -13.9 °C -14.4 °C 34130.9 hPa SSW 23 km/h 51.5 km/h 94 % 0 mm
18:37 -13.9 °C -14.4 °C 34130.9 hPa South 42.2 km/h 51.5 km/h 94 % 0 mm
18:40 -14 °C -14.4 °C 34130.9 hPa SSW 19.6 km/h 51 km/h 94 % 0 mm
18:45 -14 °C -14.4 °C 34164.7 hPa SSW 45.1 km/h 49.7 km/h 94 % 0 mm
18:47 -14 °C -14.4 °C 34164.7 hPa SSE 27.7 km/h 49.7 km/h 94 % 0 mm
18:52 -14 °C -14.4 °C 34164.7 hPa SSW 37.5 km/h 49.7 km/h 94 % 0 mm
18:55 -14 °C -14.4 °C 34164.7 hPa South 38.3 km/h 45.1 km/h 94 % 0 mm
19:00 -14.1 °C -14.4 °C 34164.7 hPa SSE 16.9 km/h 45.9 km/h 94 % 0 mm
19:01 -14.1 °C -14.4 °C 34164.7 hPa South 39.9 km/h 45.9 km/h 94 % 0 mm
19:06 -14.1 °C -14.4 °C 34164.7 hPa SSW 38.3 km/h 48.6 km/h 94 % 0 mm
19:08 -14.1 °C -14.4 °C 34164.7 hPa South 27.2 km/h 48.6 km/h 94 % 0 mm
19:13 -14.1 °C -14.4 °C 34130.9 hPa SSW 24.3 km/h 55.2 km/h 94 % 0 mm
19:18 -14.1 °C -14.4 °C 34130.9 hPa SSW 31.9 km/h 55.2 km/h 94 % 0 mm
19:19 -14.1 °C -14.4 °C 34130.9 hPa SSW 26.7 km/h 55.2 km/h 94 % 0 mm
19:23 -14.1 °C -14.4 °C 34130.9 hPa SSW 44.6 km/h 45.1 km/h 94 % 0 mm
19:28 -14.1 °C -14.4 °C 34130.9 hPa South 51 km/h 51 km/h 95 % 0 mm
19:29 -14.1 °C -14.4 °C 34130.9 hPa SSW 34.1 km/h 57.3 km/h 94 % 0 mm
19:35 -14.1 °C -14.4 °C 34130.9 hPa South 22 km/h 57.3 km/h 95 % 0 mm
19:36 -14.2 °C -14.4 °C 34130.9 hPa SSW 31.4 km/h 57.3 km/h 95 % 0 mm
19:41 -14.2 °C -14.4 °C 34097 hPa South 40.7 km/h 44.6 km/h 95 % 0 mm
19:42 -14.2 °C -14.4 °C 34097 hPa SSW 26.7 km/h 44.6 km/h 95 % 0 mm
19:47 -14.2 °C -14.4 °C 34097 hPa South 45.9 km/h 62 km/h 95 % 0 mm
19:48 -14.2 °C -14.4 °C 34097 hPa South 33.2 km/h 62 km/h 95 % 0 mm
19:53 -14.2 °C -14.4 °C 34097 hPa SSE 28.5 km/h 62 km/h 95 % 0 mm
19:58 -14.2 °C -14.4 °C 34097 hPa South 33.2 km/h 49.7 km/h 95 % 0 mm
20:03 -14.2 °C -14.4 °C 34097 hPa SSE 26.2 km/h 49.7 km/h 95 % 0 mm
20:04 -14.2 °C -14.4 °C 34097 hPa South 31.9 km/h 49.7 km/h 95 % 0 mm
20:08 -14.3 °C -14.4 °C 34097 hPa SSW 36.5 km/h 48.1 km/h 95 % 0 mm
20:10 -14.3 °C -14.4 °C 34097 hPa SSW 26.7 km/h 48.1 km/h 95 % 0 mm
20:14 -14.3 °C -14.4 °C 34097 hPa SSE 44.1 km/h 48.1 km/h 95 % 0 mm
20:15 -14.3 °C -14.4 °C 34097 hPa SSE 36.5 km/h 54.4 km/h 95 % 0 mm
20:20 -14.3 °C -14.4 °C 34097 hPa South 44.1 km/h 54.4 km/h 95 % 0 mm
20:23 -14.3 °C -14.4 °C 34097 hPa South 39.4 km/h 54.4 km/h 95 % 0 mm
20:28 -14.3 °C -14.4 °C 34097 hPa South 20.9 km/h 49.2 km/h 95 % 0 mm
20:29 -14.3 °C -14.4 °C 34097 hPa SSW 27.7 km/h 49.2 km/h 95 % 0 mm
20:34 -14.4 °C -14.4 °C 34097 hPa South 29 km/h 48.1 km/h 95 % 0 mm
20:39 -14.4 °C -14.4 °C 34097 hPa SSE 33.6 km/h 48.1 km/h 95 % 0 mm
20:40 -14.4 °C -14.4 °C 34097 hPa South 41.7 km/h 48.1 km/h 95 % 0 mm
20:41 -14.4 °C -14.4 °C 34097 hPa South 41.7 km/h 48.1 km/h 95 % 0 mm
20:46 -14.4 °C -14.4 °C 34097 hPa SSW 22 km/h 51 km/h 95 % 0 mm
20:47 -14.4 °C -14.4 °C 34097 hPa SSW 39.9 km/h 51 km/h 95 % 0 mm
20:52 -14.5 °C -14.4 °C 34097 hPa SSW 27.7 km/h 53.3 km/h 96 % 0 mm
20:55 -14.5 °C -14.4 °C 34097 hPa South 39.4 km/h 63.7 km/h 96 % 0 mm
21:00 -14.5 °C -14.4 °C 34063.2 hPa SSE 24.8 km/h 65.5 km/h 96 % 0 mm
21:02 -14.5 °C -14.4 °C 34063.2 hPa SSW 28.5 km/h 65.5 km/h 96 % 0 mm
21:03 -14.5 °C -14.4 °C 34063.2 hPa South 26.2 km/h 65.5 km/h 96 % 0 mm
21:08 -14.5 °C -14.4 °C 34063.2 hPa SSW 45.1 km/h 65.5 km/h 96 % 0 mm
21:11 -14.5 °C -14.4 °C 34063.2 hPa SSW 24.8 km/h 49.7 km/h 96 % 0 mm
21:16 -14.5 °C -14.4 °C 34063.2 hPa South 48.6 km/h 57.3 km/h 96 % 0 mm
21:21 -14.5 °C -14.4 °C 34063.2 hPa SSW 55.7 km/h 57.3 km/h 96 % 0 mm
21:22 -14.5 °C -14.4 °C 34063.2 hPa SSW 39.4 km/h 57.3 km/h 96 % 0 mm
21:26 -14.6 °C -14.4 °C 34029.3 hPa SW 28.5 km/h 55.7 km/h 95 % 0 mm
21:31 -14.6 °C -14.4 °C 34029.3 hPa South 65 km/h 65 km/h 95 % 0 mm
21:32 -14.6 °C -14.4 °C 34029.3 hPa SSW 22 km/h 65 km/h 95 % 0 mm
21:38 -14.6 °C -14.4 °C 34029.3 hPa South 24.8 km/h 65 km/h 95 % 0 mm
21:43 -14.6 °C -14.4 °C 34029.3 hPa South 33.2 km/h 51.5 km/h 96 % 0 mm
21:44 -14.6 °C -14.4 °C 34029.3 hPa South 39.9 km/h 51.5 km/h 96 % 0 mm
21:49 -14.6 °C -14.4 °C 34029.3 hPa South 33.6 km/h 66.6 km/h 96 % 0 mm
21:54 -14.6 °C -15 °C 34029.3 hPa South 39.9 km/h 66.6 km/h 95 % 0 mm
21:55 -14.6 °C -14.4 °C 34029.3 hPa SSW 25.4 km/h 66.6 km/h 96 % 0 mm
21:56 -14.6 °C -14.4 °C 34029.3 hPa SSW 27.2 km/h 66.6 km/h 96 % 0 mm
22:01 -14.6 °C -14.4 °C 34029.3 hPa SSW 45.9 km/h 61.3 km/h 96 % 0 mm
22:02 -14.6 °C -14.4 °C 34029.3 hPa SW 51.5 km/h 61.3 km/h 96 % 0 mm
22:07 -14.6 °C -14.4 °C 34029.3 hPa SSE 34.1 km/h 61.3 km/h 96 % 0 mm
22:12 -14.6 °C -14.4 °C 34029.3 hPa SSW 39.9 km/h 52 km/h 96 % 0 mm
22:14 -14.6 °C -14.4 °C 34029.3 hPa SSW 39.4 km/h 52 km/h 96 % 0 mm
22:16 -14.6 °C -14.4 °C 34029.3 hPa South 28.5 km/h 52.8 km/h 96 % 0 mm
22:21 -14.7 °C -14.4 °C 34029.3 hPa SSW 31.4 km/h 58.6 km/h 96 % 0 mm
22:22 -14.7 °C -14.4 °C 34029.3 hPa South 38.3 km/h 58.6 km/h 96 % 0 mm
22:23 -14.7 °C -14.4 °C 34029.3 hPa South 33.6 km/h 58.6 km/h 96 % 0 mm
22:28 -14.7 °C -14.4 °C 33992.1 hPa South 33.2 km/h 58.6 km/h 96 % 0 mm
22:33 -14.7 °C -14.4 °C 33992.1 hPa SSW 63.7 km/h 74 km/h 96 % 0 mm
22:34 -14.7 °C -15 °C 33992.1 hPa SSE 39.4 km/h 74 km/h 95 % 0 mm
22:38 -14.7 °C -15 °C 33992.1 hPa SSW 31.4 km/h 74 km/h 95 % 0 mm
22:40 -14.7 °C -15 °C 33992.1 hPa South 34.8 km/h 74 km/h 95 % 0 mm
22:45 -14.7 °C -15 °C 33992.1 hPa SSE 49.7 km/h 59.1 km/h 95 % 0 mm
22:47 -14.7 °C -15 °C 33992.1 hPa South 50.5 km/h 59.1 km/h 95 % 0 mm
22:52 -14.7 °C -15 °C 33992.1 hPa SSW 39.9 km/h 53.3 km/h 95 % 0 mm
22:53 -14.7 °C -15 °C 33992.1 hPa SSW 27.7 km/h 53.3 km/h 95 % 0 mm
22:58 -14.7 °C -15 °C 33958.2 hPa South 33.2 km/h 51 km/h 95 % 0 mm
23:01 -14.7 °C -15 °C 33958.2 hPa SSW 16.9 km/h 51 km/h 95 % 0 mm
23:02 -14.7 °C -15 °C 33958.2 hPa South 51 km/h 52 km/h 95 % 0 mm
23:07 -14.6 °C -15 °C 33958.2 hPa South 34.1 km/h 62 km/h 95 % 0 mm
23:10 -14.6 °C -15 °C 33958.2 hPa South 45.1 km/h 62 km/h 95 % 0 mm
23:15 -14.6 °C -15 °C 33924.3 hPa SSW 33.2 km/h 63.7 km/h 94 % 0 mm
23:20 -14.6 °C -15 °C 33924.3 hPa South 38.3 km/h 63.7 km/h 94 % 0 mm
23:22 -14.6 °C -15 °C 33924.3 hPa South 27.2 km/h 63.7 km/h 94 % 0 mm
23:27 -14.6 °C -15 °C 33958.2 hPa South 27.7 km/h 68.9 km/h 94 % 0 mm
23:32 -14.6 °C -15 °C 33958.2 hPa SSW 29.5 km/h 68.9 km/h 94 % 0 mm
23:34 -14.6 °C -15 °C 33958.2 hPa South 44.1 km/h 68.9 km/h 94 % 0 mm
23:39 -14.6 °C -15 °C 33958.2 hPa South 48.6 km/h 67.9 km/h 94 % 0 mm
23:43 -14.6 °C -15 °C 33958.2 hPa South 44.6 km/h 67.9 km/h 94 % 0 mm
23:47 -14.7 °C -15 °C 33958.2 hPa SSW 26.7 km/h 62.6 km/h 94 % 0 mm
23:51 -14.7 °C -15 °C 33958.2 hPa SSW 31.9 km/h 62.6 km/h 94 % 0 mm
23:56 -14.7 °C -15 °C 33958.2 hPa South 36.5 km/h 60.8 km/h 94 % 0 mm
23:58 -14.7 °C -15 °C 33958.2 hPa SSW 45.9 km/h 60.8 km/h 94 % 0 mm
Le Gheer Warneton
Courtoisie de Weather Underground - 3 mb

Mise a jour : 18/02/2018 20:38:11
Généré par Cumulus 1.9.4 (1099)